Regional Weather Roundup
Issued by NWS Cleveland, OH

Home | Current Version | Previous Version | Graphics & Text | Print | Product List | Glossary On
Versions: 1 2 3 4 5 6 7 8 9 10 11 12 13 14 15 16 17 18 19 20 21 22 23 24 25 26 27 28 29 30 31 32 33 34 35 36 37 38 39 40 41 42 43 44 45 46 47 48 49 50
000
ASUS41 KCLE 160710
RWRCLE
OHIO REGIONAL WEATHER ROUNDUP
NATIONAL WEATHER SERVICE CLEVELAND, OH
300 AM EDT WED APR 16 2014

NOTE: "FAIR" INDICATES FEW OR NO CLOUDS BELOW 12,000 FEET WITH NO
SIGNIFICANT WEATHER AND/OR OBSTRUCTIONS TO VISIBILITY.

OHZ001>008-015>018-024>027-034-035-043-044-160800-
   NORTHWEST OHIO

CITY           SKY/WX    TMP DP  RH WIND       PRES   REMARKS
DEFIANCE       CLEAR     23  16  74 CALM      30.28R
FINDLAY        CLEAR     26  15  63 CALM      30.26R
TOLEDO EXPRESS CLEAR     22  12  65 CALM      30.27R
TOLEDO EXEC    CLEAR     26  13  57 CALM      30.28R
LIMA           CLEAR     26  16  65 CALM      30.26R
$$

OHZ009>014-019>023-028>033-038-089-160800-
   NORTHEAST OHIO

CITY           SKY/WX    TMP DP  RH WIND       PRES   REMARKS
CLE-HOPKINS    PTCLDY    30  15  53 N7        30.27R WCI  23
CLE-LAKEFRONT  CLEAR     30  15  53 N13G20    30.25R WCI  20
CUY CO. ARPT   NOT AVBL
LORAIN-ELYRIA  PTCLDY    31  15  52 N7        30.25R WCI  24
ASHTABULA      CLEAR     25  16  68 N3        30.24R
AKRON-CANTON   CLEAR     25  22  89 N6        30.22R WCI  18
WOOSTER        CLOUDY    27  21  78 N6        30.23R WCI  20
MANSFIELD      CLEAR     23  16  74 NW7       30.22R WCI  15
YOUNGSTOWN     MOCLDY    23  17  78 N8        30.21R WCI  14
$$

OHZ042-051>053-060>062-070>072-077>081-160800-
  SOUTHWEST OHIO

CITY           SKY/WX    TMP DP  RH WIND       PRES   REMARKS
CINC-COVINGTON PTCLDY    31  16  54 E7        30.28R WCI  24
CINC-LUNKEN    CLEAR     27  25  92 CALM      30.32R
HAMILTON       CLEAR     27  19  72 CALM      30.31R
DAYTON         CLEAR     27  17  66 CALM      30.28R
WRIGHT-PAT AFB CLEAR     28  15  58 CALM      30.28R
DAYTON GENERAL CLEAR     27  16  63 CALM      30.27R
WILMINGTON     CLEAR     26  17  68 CALM      30.27R
$$

OHZ036-037-039>041-045>050-054>059-063>069-073>076-082>088-160800-
  CENTRAL AND SOUTHEAST OHIO

CITY           SKY/WX    TMP DP  RH WIND       PRES   REMARKS
COLUMBUS       CLEAR     30  15  53 N5        30.26R WCI  25
OSU AIRPORT    CLEAR     25  14  63 NW6       30.26R WCI  18
BOLTON FIELD   CLEAR     26  17  67 CALM      30.27R
RICKENBACK AFB CLEAR     30  12  47 N5        30.27R WCI  25
NEWARK         CLEAR     26  15  63 NW5       30.25R WCI  20
MARION         CLEAR     25  15  66 NW5       30.25S WCI  19
LANCASTER      CLEAR     24  18  77 CALM      30.27R
ZANESVILLE     CLEAR     24  19  81 W3        30.25R
NEW PHILLY     CLEAR     25  19  78 CALM      30.24S
$$



USA.gov is the U.S. government's official web portal to all federal, state and local government web resources and services.